This is the latest recevied weather packets stored in our database for station/object W8RSN-13. If no packets are shown the sender has not sent any weather packets the latest 10 day(s).
| Time | Temp. | Humidity | Pressure | Rain* | Wind** | Luminosity | Snow |
|---|---|---|---|---|---|---|---|
| 1788137665 | 33.33° C | 33% | 1012 hPa | - | - | - | - |
| 1788137364 | 33.33° C | 31% | 1011.8 hPa | - | - | - | - |
| 1788137063 | 33.33° C | 31% | 1012 hPa | - | - | - | - |
| 1788136762 | 34.44° C | 23% | 1011.9 hPa | - | - | - | - |
| 1788136461 | 33.89° C | 25% | 1011.8 hPa | - | - | - | - |
| 1788136161 | 33.89° C | 25% | 1011.7 hPa | - | - | - | - |
| 1788135860 | 33.89° C | 26% | 1011.7 hPa | - | - | - | - |
| 1788135559 | 33.89° C | 26% | 1011.8 hPa | - | - | - | - |
| 1788135258 | 33.89° C | 27% | 1011.8 hPa | - | - | - | - |
| 1788134957 | 33.89° C | 25% | 1011.6 hPa | - | - | - | - |
| 1788134656 | 33.89° C | 26% | 1011.7 hPa | - | - | - | - |
| 1788134355 | 34.44° C | 26% | 1011.5 hPa | - | - | - | - |
| 1788134075 | 34.44° C | 27% | 1011.6 hPa | - | - | - | - |
| 1788133774 | 34.44° C | 27% | 1011.6 hPa | - | - | - | - |
| 1788133473 | 34.44° C | 26% | 1011.7 hPa | - | - | - | - |
| 1788133172 | 35° C | 27% | 1011.6 hPa | - | - | - | - |
| 1788132871 | 34.44° C | 26% | 1011.6 hPa | - | - | - | - |
| 1788132570 | 35° C | 27% | 1011.7 hPa | - | - | - | - |
| 1788132269 | 35° C | 28% | 1011.7 hPa | - | - | - | - |
| 1788131968 | 35° C | 27% | 1011.7 hPa | - | - | - | - |
| 1788131667 | 35° C | 29% | 1011.8 hPa | - | - | - | - |
| 1788131366 | 35° C | 28% | 1011.5 hPa | - | - | - | - |
| 1788131066 | 35.56° C | 29% | 1011.5 hPa | - | - | - | - |
| 1788130765 | 35° C | 30% | 1011.9 hPa | - | - | - | - |
| 1788130464 | 35° C | 31% | 1011.9 hPa | - | - | - | - |
* Rain since midnight (hover to see other rain measurements)
** Current wind speed in m/s (hover to see current wind gust speed)